Terminal Aerodrome Forecast
Issued by NWS

Home | Current Version | Previous Version | Text Only | Print | Product List | Glossary On
Versions: 1 2 3 4 5 6 7 8 9 10 11 12 13 14
222
FTUS43 KFGF 010520
TAFBJI
TAF
KBJI 010520Z 0106/0206 18006KT P6SM VCSH BKN050
     FM011000 19007KT P6SM VCSH BKN015
     FM011300 23010KT P6SM VCSH OVC007
     FM012000 27013KT P6SM OVC015=

USA.gov is the U.S. government's official web portal to all federal, state and local government web resources and services.